Location: *
(1.3500°S, 147.5000°W)
Time: 13:47:37
(UTC+00:00)

NOAA 11 - Pass Details

Date: 07 April 2020
Orbit: 833 x 850 km, 98.4° (Epoch: 04 June)

Event Time Altitude Azimuth Distance (km) Brightness Sun altitude
Rises 04:35:02 0° 163° (SSE) 3,378 7.1 -10.8°
Reaches altitude 10° 04:37:25 10° 160° (SSE) 2,442 6.3 -11.4°
Maximum altitude 04:42:47 68° 78° (ENE) 896 4.1 -12.7°
Drops below altitude 10° 04:48:09 10° 355° (N) 2,438 6.7 -14.1°
Sets 04:50:31 0° 353° (N) 3,371 7.5 -14.7°
